Meteo Giornale » Osservazioni meteo Stati Uniti (USA) » Warrenton

ore: 15:55 - Osservazioni Meteo Warrenton
Lat. 38° 35' N Lon. 77° 43' W Alt. 103 metri s.l.m.

sereno

36 °C

Sereno

Temp. 24 Ore

21 °C

36 °C

Ovest/Sud-Ovest

9.3 Km/h

Dew point 21 °C

Umidità 41 %

Visibilità  10 Km

Il sole sorge alle ore 06:40

Il sole tramonta alle ore 19:41

Data e Ora Cielo e Fenomeni T °C DP °C Um. % Pres. hPa Vis. km Vento km/h
Oggi h: 15:55 sereno Sereno 36 21 41 1016 10 O/SO 9.3
Oggi h: 15:35 sereno Sereno 36 19 36 1016 10 O 7.4
Oggi h: 15:15 sereno Sereno 35 20 41 1016 10 N 5.5
Oggi h: 14:55 sereno Sereno 35 20 41 1016 10 O 7.4
Oggi h: 14:35 sereno Sereno 35 20 41 1016 10 O 7.4
Oggi h: 14:15 sereno Sereno 35 20 41 1016 10 SO 11.1
Oggi h: 13:55 sereno Sereno 34 21 46 1016 10 O/SO 7.4
Oggi h: 13:35 sereno Sereno 35 20 41 1016 10 N 5.5
Oggi h: 13:15 sereno Sereno 35 21 44 1017 10 O/SO 7.4
Oggi h: 12:55 sereno Sereno 35 21 44 1017 10 O/NO 11.1
Oggi h: 12:35 sereno Sereno 34 21 46 1017 10 O/SO 7.4
Oggi h: 12:15 sereno Sereno 34 20 43 1017 10 N 5.5
Oggi h: 11:55 sereno Sereno 34 20 43 1017 10 N 0
Oggi h: 11:35 sereno Sereno 33 22 52 1017 10 N 5.5
Oggi h: 11:15 sereno Sereno 32 22 55 1018 10 N 5.5
Oggi h: 10:55 sereno Sereno 30 22 62 1017 10 S/SO 7.4
Oggi h: 10:35 sereno Sereno 29 22 66 1018 10 N 0
Oggi h: 10:15 sereno Sereno 29 21 62 1018 10 N 5.5
Oggi h: 09:55 sereno Sereno 30 22 62 1018 10 N 5.5
Oggi h: 09:35 sereno Sereno 28 22 69 1018 10 N 5.5
Oggi h: 09:15 sereno Sereno 27 22 74 1018 10 N 5.5
Oggi h: 08:55 sereno Sereno 26 23 83 1018 10 N 5.5
Oggi h: 08:35 sereno Sereno 24 23 94 1018 10 S/SO 7.4
Oggi h: 08:15 sereno Sereno 24 22 88 1018 11 N 0
Oggi h: 07:55 sereno Sereno 23 22 94 1018 11 N 0
Oggi h: 07:35 sereno Sereno 23 22 94 1017 11 N 0
Oggi h: 07:15 foschia Foschia 22 21 94 1017 5 N 0
Oggi h: 06:55 nebbia Nebbia 21 19 88 1017 2 N 0
Oggi h: 06:35 nebbia Nebbia 21 19 88 1017 2 N 0
Oggi h: 06:15 nebbia Nebbia 21 19 88 1017 2 N 0
Oggi h: 05:55 nebbia Nebbia 22 20 88 1017 2 N 0
Oggi h: 05:35 nebbia Nebbia 22 20 88 1017 2 N 0
Oggi h: 05:15 nebbia Nebbia 22 20 88 1017 2 N 0
Oggi h: 04:55 nebbia Nebbia 21 20 94 1017 2 N 0
Oggi h: 04:35 nebbia Nebbia 21 20 94 1017 2 N 0
Oggi h: 04:15 foschia Foschia 23 21 88 1017 8 N 0
Oggi h: 03:55 foschia Foschia 23 22 94 1017 8 N 0
Oggi h: 03:35 foschia Foschia 23 22 94 1017 8 N 0
Oggi h: 03:15 sereno Sereno 23 22 94 1018 11 N 0
Oggi h: 02:55 sereno Sereno 24 22 88 1018 11 N 5.5
Oggi h: 02:35 sereno Sereno 24 23 94 1018 11 N 0
Oggi h: 02:15 sereno Sereno 24 23 94 1018 11 N 0
Oggi h: 01:55 foschia Foschia 24 22 88 1018 8 N 0
Oggi h: 01:35 foschia Foschia 24 22 88 1018 8 N 0
Oggi h: 01:15 foschia Foschia 24 22 88 1018 8 N 0
Oggi h: 00:55 sereno Sereno 24 22 88 1019 11 N 0
Oggi h: 00:35 foschia Foschia 23 22 94 1019 8 N 0
Oggi h: 00:15 foschia Foschia 22 21 94 1019 6 N 0
Ieri h: 23:55 foschia Foschia 22 20 88 1019 5 N 0
Ieri h: 23:35 nebbia Nebbia 23 21 88 1019 2 N 0
Ieri h: 23:15 foschia Foschia 23 21 88 1019 2 N 0
Ieri h: 22:55 foschia Foschia 23 21 88 1019 5 N 0
Ieri h: 22:35 foschia Foschia 22 21 94 1019 5 N 0
Ieri h: 22:15 foschia Foschia 22 21 94 1019 5 N 0
Ieri h: 21:55 foschia Foschia 22 21 94 1019 5 N 0
Ieri h: 21:35 foschia Foschia 24 22 88 1018 3 N 0
Ieri h: 21:15 sereno Sereno 24 23 94 1019 11 N 0
Ieri h: 20:55 sereno Sereno 24 23 94 1018 11 N 0
Ieri h: 20:35 sereno Sereno 25 23 88 1018 10 N 0
Ieri h: 20:15 sereno Sereno 26 24 88 1018 10 N 0
Ieri h: 19:55 sereno Sereno 26 24 88 1018 10 N 0
Ieri h: 19:35 sereno Sereno 27 23 78 1018 10 N 0
Ieri h: 19:15 sereno Sereno 28 23 74 1018 10 N 0
Ieri h: 18:55 sereno Sereno 28 23 74 1018 10 N 0
Ieri h: 18:35 sereno Sereno 28 23 74 1018 10 N 0
Ieri h: 18:15 sereno Sereno 29 22 66 1019 10 N 0
Ieri h: 17:55 sereno Sereno 29 21 62 1019 10 N 0
Ieri h: 17:35 sereno Sereno 30 21 58 1019 10 N 5.5
Ieri h: 17:15 sereno Sereno 30 21 58 1019 10 N 0
Ieri h: 16:55 coperto_pioggia Pioggia 30 22 62 1019 10 N 0
Ieri h: 16:35 sereno Sereno 30 21 58 1019 10 N 0